Location: Dissen
(37.5842°N, 89.8420°W)
Time: 20:14:00
(UTC+00:00)

ACS3 Solar Sail - Visible Passes

Search period start: 04 October 2024 00:00
Search period end: 14 October 2024 00:00
Orbit: 963 x 1036 km, 97.4° (Epoch: 04 October)

Date Brightness Start Highest point End Pass type
(mag) Time Alt. Az. Time Alt. Az. Time Alt. Az.
04 Oct 3.6 00:13:31 10° ENE 00:15:29 11° ENE 00:17:26 10° NE visible
04 Oct 1.7 01:57:53 73° ESE 01:58:21 77° ENE 02:04:44 10° N visible
04 Oct 4.3 03:43:04 15° W 03:43:04 15° W 03:46:18 10° NW visible
05 Oct 3.0 00:45:13 19° E 00:46:58 22° ENE 00:51:36 10° NNE visible
05 Oct 2.3 02:30:24 59° W 02:30:24 59° W 02:36:41 10° NNW visible
06 Oct 2.3 01:17:44 37° E 01:18:39 39° ENE 01:24:27 10° N visible
06 Oct 3.3 03:02:55 32° W 03:02:55 32° W 03:08:10 10° NNW visible
07 Oct 3.7 00:07:08 10° ENE 00:07:42 10° ENE 00:08:16 10° NE visible
07 Oct 1.7 01:50:15 70° E 01:50:29 70° ENE 01:56:49 10° N visible
07 Oct 4.2 03:35:25 17° W 03:35:25 17° W 03:38:48 10° NW visible
08 Oct 3.1 00:37:35 18° E 00:39:09 20° ENE 00:43:29 10° NNE visible
08 Oct 2.1 02:22:46 65° W 02:22:46 65° W 02:28:49 10° NNW visible
09 Oct 2.4 01:10:06 34° E 01:10:49 35° ENE 01:16:26 10° N visible
09 Oct 3.2 02:55:16 34° W 02:55:16 34° W 03:00:23 10° NNW visible
10 Oct 1.8 01:42:37 64° ENE 01:42:37 64° ENE 01:48:52 10° N visible
10 Oct 4.1 03:27:47 18° W 03:27:47 18° W 03:31:13 10° NW visible
11 Oct 3.2 00:29:56 17° E 00:31:20 18° ENE 00:35:19 10° NNE visible
11 Oct 2.1 02:15:07 68° WNW 02:15:07 68° WNW 02:20:56 10° NNW visible
12 Oct 2.5 01:02:27 31° ENE 01:02:57 32° ENE 01:08:25 10° N visible
12 Oct 3.1 02:47:38 37° WNW 02:47:38 37° WNW 02:52:34 10° NNW visible
13 Oct 1.9 01:34:58 57° ENE 01:34:58 57° ENE 01:40:54 10° N visible
13 Oct 4.0 03:20:09 20° WNW 03:20:09 20° WNW 03:23:34 10° NW visible
